Location: Remedello Sotto
(45.2500°N, 10.3667°E)
Time: 21:23:43
(UTC+00:00)

MOS 1-B - Pass Details

Date: 03 February 2023
Orbit: 904 x 913 km, 99.4° (Epoch: 23 March)

Event Time Altitude Azimuth Distance (km) Brightness Sun altitude
Rises 18:13:09 0° 165° (SSE) 3,525 7.3 -18.7°
Reaches altitude 10° 18:15:33 10° 166° (SSE) 2,589 6.6 -19.1°
Maximum altitude 18:21:20 82° 255° (WSW) 925 4.4 -20.1°
Drops below altitude 10° 18:27:11 10° 343° (NNW) 2,612 6.9 -21.2°
Sets 18:29:37 0° 345° (NNW) 3,558 7.6 -21.6°
